Flag for U.S.A. Weather past 2 weeks in Boston, Massachusetts, U.S.A.

Now
37 °F

Overcast.


Feels Like: 32 °F
Forecast: 20 / 37 °F
Wind: 7 mph from Northwest

Location: Logan International Airport

Current Time: Mar 5, 2015 at 6:08:03 AM

Latest Report: Mar 5, 2015 at 4:54 AM


Visibility: 10 mi

Pressure: 29.91 "Hg

Humidity: 52%

Dew point: 21 °F

Location of BostonLocation

Historic Weather in Boston — Graph

°F

Boston temperature yesterday

Maximum temperature yesterday: 42 °F (at 10:54 AM)
Minimum temperature yesterday: 34 °F (at 12:02 AM)
Average temperature yesterday: 39 °F

Past Weeks' High & Low Weather Summary

 TemperatureHumidityPressure
High42 °F (Mar 4, 10:54 AM)100% (Feb 22, 1:54 AM)30.74 "Hg (Feb 22, 1:54 AM)
Low2 °F (Feb 24, 4:54 AM)27% (Feb 23, 1:54 PM)29.53 "Hg (Feb 19, 1:54 PM)
Average24 °F59%30.11 "Hg
* Reported Feb 18 4:54 AM — Mar 5 4:54 AM, Boston, Weather by CustomWeather, © 2015

Note: Actual official high and low records may vary slightly from our data, if they occured in-between our weather recording intervals... More about our weather records

Advertising

Boston weather history for previous 24 hours

 ConditionsComfort  
Time TempWeatherWind HumidityBarometerVisibility
4:54 AM
Thu, Mar 5
37 °FOvercast.7 mph52%29.91 "Hg10 mi
3:54 AM37 °FOvercast.7 mph60%29.87 "Hg10 mi
2:54 AM37 °FOvercast.7 mph65%29.85 "Hg10 mi
1:54 AM38 °FOvercast.8 mph65%29.85 "Hg10 mi
12:54 AM39 °FOvercast.10 mph65%29.85 "Hg10 mi
11:54 PM
Wed, Mar 4
38 °FMostly cloudy.6 mph73%29.86 "Hg10 mi
10:54 PM39 °FMostly cloudy.7 mph70%29.86 "Hg10 mi
9:54 PM38 °FMostly cloudy.9 mph73%29.83 "Hg10 mi
8:54 PM39 °FMostly cloudy.8 mph70%29.83 "Hg10 mi
7:54 PM39 °FMostly cloudy.10 mph70%29.81 "Hg10 mi
6:54 PM40 °FMostly cloudy.12 mph65%29.83 "Hg10 mi
5:54 PM42 °FMostly cloudy.8 mph60%29.79 "Hg10 mi
4:54 PM41 °FMostly cloudy.13 mph62%29.79 "Hg10 mi
3:54 PM42 °FMostly cloudy.13 mph60%29.77 "Hg10 mi
2:54 PM42 °FMostly cloudy.18 mph60%29.77 "Hg10 mi
1:54 PM42 °FMostly cloudy.14 mph62%29.75 "Hg10 mi
12:54 PM42 °FMostly cloudy.16 mph62%29.75 "Hg10 mi
11:54 AM41 °FMore clouds than sun.14 mph67%29.78 "Hg10 mi
10:54 AM42 °FMore clouds than sun.14 mph68%29.76 "Hg10 mi
9:54 AM38 °FMore clouds than sun.10 mph83%29.75 "Hg10 mi
7:54 AM37 °FMostly cloudy.12 mph89%29.72 "Hg10 mi
6:54 AM37 °FMostly cloudy.13 mph89%29.70 "Hg10 mi
Weather by CustomWeather, © 2015

See weather overviewHow to use our weather pages